Regional Weather Roundup
Issued by NWS

Home | Current Version | Previous Version | Text Only | Print | Product List | Glossary Off
Versions: 1 2 3 4 5 6 7 8 9 10 11 12 13 14 15 16 17 18 19 20 21 22 23 24 25 26 27 28 29 30 31 32 33 34 35 36 37 38 39 40 41 42 43 44 45 46 47 48 49 50

000
ASUS43 KLOT 241804
RWRIL

ILLINOIS REGIONAL WEATHER ROUNDUP
NATIONAL WEATHER SERVICE CHICAGO/ROMEOVILLE IL
100 PM CDT THU MAY 24 2018

NOTE: "FAIR" INDICATES FEW OR NO CLOUDS BELOW 12,000 FEET WITH NO
SIGNIFICANT WEATHER AND/OR OBSTRUCTIONS TO VISIBILITY.

* THESE STATIONS ARE NOT UNDER NWS QUALITY CONTROL. THEY ALSO MAY NOT
  REPORT WEATHER SUCH AS PRECIPITATION OR FOG.

ILZ001-002-007-009-015-016-024-241900-
NORTHWEST ILLINOIS

CITY           SKY/WX    TMP DP  RH WIND       PRES   REMARKS
MOLINE         FAIR      88  63  43 MISG      30.09F HX  89
6HR MIN TEMP:  63; 6HR MAX TEMP:  88;

STERLING*      FAIR      85  61  44 VRB5      30.12F HX  85
SAVANNA*       FAIR      84  63  49 S6        30.11F HX  85
$$

ILZ003-004-008-010-011-017-018-241900-
NORTH CENTRAL ILLINOIS

CITY           SKY/WX    TMP DP  RH WIND       PRES   REMARKS
ROCKFORD       PTSUNNY   82  59  45 S12       30.14F HX  82
6HR MIN TEMP:  62; 6HR MAX TEMP:  82;

FREEPORT*      FAIR      82  61  49 SW10      30.15F HX  82
ROCHELLE*      FAIR      83  59  44 S9        30.14F HX  83
DE KALB*       FAIR      81  61  49 S12       30.16F HX  82
$$

ILZ005-006-012>014-019>023-241900-
NORTHEAST ILLINOIS

CITY           SKY/WX    TMP DP  RH WIND       PRES   REMARKS
CHICAGO-OHARE  FAIR      82  55  39 VRB5      30.14F HX  81
6HR MIN TEMP:  63; 6HR MAX TEMP:  83;

CHICAGO-MIDWAY FAIR      83  54  36 VRB6      30.15F HX  82
6HR MIN TEMP:  64; 6HR MAX TEMP:  84;

AURORA         FAIR      83  57  41 S7        30.14F HX  82
6HR MIN TEMP:  62; 6HR MAX TEMP:  84;

LANSING*       FAIR      81  61  49 SE6       30.16F HX  82
JOLIET*        FAIR      84  57  40 SE5       30.15F HX  83
WAUKEGAN       FAIR      76  58  53 SE13      30.14F
6HR MIN TEMP:  62; 6HR MAX TEMP:  76;

DUPAGE AIRPORT FAIR      82  58  43 S10       30.14F HX  82
6HR MIN TEMP:  61; 6HR MAX TEMP:  82;

KANKAKEE*      FAIR      83  54  36 CALM      30.15F HX  82
WHEELING         N/A     83  55  38 S7        30.15F HX  82
6HR MIN TEMP:  61; 6HR MAX TEMP:  83;

MORRIS*        FAIR      85  55  36 E7        30.12F HX  83
NORTHERLY ISL    N/A     67  56  67 E10         N/A
$$

LMZ740>746-241900-
SOUTHERN LAKE MICHIGAN

STATION/POSITION SKY/WX   TEMP    WIND        PRES    VSBY  WAVE
                          AIR SEA DIR/SP/G                  HT/PER
                          (F)     (DEG/KT/KT) (MB)    (MI)  (FT/S)
SOUTHERN BUOY              49 40  160/  8/  8 1022.2F         0
WILMETTE HARBOR            58 52  120/ 10/ 10   N/A           1/ 2
HARRISON CRIB              74     130/ 17/ 18   N/A
BURNHAM HARBOR             67      90/ 10/ 11   N/A
CALUMET HARBOR             76      90/  5/  7 1020.8F
BURNS HARBOR               79      CALM  / 10 1022.0F
MICHIGAN CITY              78     130/  6/  6   N/A
MICHIGAN CITY 6N           71 57  360/  2/  4   N/A           0
ST. JOSEPH                 67 61  350/  2/  4 1022.0F         0
$$

ILZ025>027-034>036-040-047-049-050-058-095>099-241900-
WEST-CENTRAL ILLINOIS

CITY           SKY/WX    TMP DP  RH WIND       PRES   REMARKS
QUINCY         SUNNY     85  60  42 SE9       30.11F HX  85
GALESBURG*     FAIR      85  60  42 E8G16     30.13F HX  85
MACOMB*        CLOUDY    86  58  39 S14       30.13F HX  85
JACKSONVILLE*  SUNNY     84  60  44 S10       30.13S HX  84
PITTSFIELD*    SUNNY     86  62  44 SE8       30.13F HX  86
$$

ILZ028>032-037-038-041>044-048-051>054-059>061-241900-
CENTRAL ILLINOIS

CITY           SKY/WX    TMP DP  RH WIND       PRES   REMARKS
BLOOMINGTON    FAIR      86  56  35 VRB3      30.15F HX  85
DECATUR        FAIR      85  56  37 VRB3      30.13F HX  84
PEORIA         FAIR      85  61  44 VRB7      30.12F HX  85
6HR MIN TEMP:  68; 6HR MAX TEMP:  85;

LACON*         FAIR      83  62  47 SW3       30.12F HX  84
LINCOLN*       FAIR      87  59  38 S6        30.13F HX  86
SPRINGFIELD    FAIR      88  59  37 SE10G18   30.13F HX  87
6HR MIN TEMP:  68; 6HR MAX TEMP:  88;

TAYLORVILLE    NOT AVBL
$$

ILZ033-039-045-046-055>057-062-063-241900-
EAST-CENTRAL ILLINOIS

CITY           SKY/WX    TMP DP  RH WIND       PRES   REMARKS
CHAMPAIGN      FAIR      86  53  32 SE9       30.15F HX  84
DANVILLE*      FAIR      80  56  43 CALM      30.14F HX  80
RANTOUL*       FAIR      85  55  35 CALM      30.15F HX  83
MATTOON        FAIR      81  61  50 VRB6      30.14F HX  82
$$

ILZ079-100>102-241900-
SOUTHWEST ILLINOIS

CITY           SKY/WX    TMP DP  RH WIND       PRES   REMARKS
ALTON          MOSUNNY   84  68  58 SE8       30.13F HX  87
BELLEVILLE     SUNNY     84  66  54 SW6       30.11F HX  86
CAHOKIA*       MOSUNNY   85  64  49 SE8       30.11F HX  86
SPARTA*        SUNNY     83  65  54 E6        30.13F HX  85
$$

ILZ064>066-069>071-074>076-080>082-084>086-088>090-092>094-241900-
SOUTH-CENTRAL ILLINOIS

CITY           SKY/WX    TMP DP  RH WIND       PRES   REMARKS
CARBONDALE     FAIR      84  64  50 SE5       30.12F HX  85
6HR MIN TEMP:  67; 6HR MAX TEMP:  85;

CAIRO*         PTSUNNY   84  67  55 NE3       30.10F HX  86
EFFINGHAM*     FAIR      85  56  36 E5        30.16F HX  83
MARION         MOSUNNY   82  61  47 NE9       30.13F HX  83
MT. VERNON     FAIR      86  60  41 NE5       30.13F HX  86
CENTRALIA*     SUNNY     85  63  47 SE3       30.12F HX  86
SALEM*         FAIR      85  55  36 E5        30.13F HX  84
METROPOLIS*    FAIR      85  64  48 N3        30.11F HAZE    HX  86
$$

ILZ067-068-072-073-078-083-087-091-241900-
SOUTHEAST ILLINOIS

CITY           SKY/WX    TMP DP  RH WIND       PRES   REMARKS
LAWRENCEVILLE  FAIR      85  53  33 E7        30.14F HX  83
FLORA*         FAIR      85  58  39 E8        30.14F HX  84
FAIRFIELD*     FAIR      83  57  41 E6        30.12F HX  83
HARRISBURG*    FAIR      83  61  46 E5        30.13F HX  84
ROBINSON*      FAIR      81  57  43 CALM      30.15F HX  81
CARMI*         FAIR      85  59  40 E9        30.12F HX  85
$$

ABBREVIATIONS USED IN REMARKS
   TC - TEMPERATURE IN CELSIUS
  WCI - WIND CHILL INDEX
   HX - HEAT INDEX
  VSB - VISIBILITY
$$




USA.gov is the U.S. government's official web portal to all federal, state and local government web resources and services.